Weather History for Poplar Bluff, MO

Change the Weather History Date:

Wednesday, December 5, 2012

  Actual Average Record
Temperature  
Mean Temperature 48 °F -  
Max Temperature 62 °F 49 °F 75 °F (1956)
Min Temperature 35 °F 30 °F 15 °F (2002)
Degree Days  
Heating Degree Days 16    
Moisture  
Dew Point 37 °F    
Average Humidity 70    
Maximum Humidity 93    
Minimum Humidity 39    
Precipitation  
Precipitation 0.00 in - - ()
Sea Level Pressure  
Sea Level Pressure 30.26 in    
Wind  
Wind Speed 6 mph (NNE)    
Max Wind Speed 9 mph    
Max Gust Speed -    
Visibility 10 miles    
Events      
Averages and records for this station are not official NWS values.
T = Trace of Precipitation, MM = Missing Value Source: NWS Daily Summary

Daily Weather History Graph

Daily Weather History Graph

Search for Another Location

Airport:

Trip Planner

Search our weather history database for the weather conditions in past years. The results will help you decide how hot, cold, wet, or windy it might be!

Date:

Astronomy

Dec. 05, 2012 Rise Set
Actual Time 6:59 AM CST 4:44 PM CST
Civil Twilight 6:30 AM CST 5:13 PM CST
Nautical Twilight 5:58 AM CST 5:45 PM CST
Astronomical Twilight 5:27 AM CST 6:17 PM CST
Moon 11:26 PM CST (12/5) 11:30 AM CST (12/5)
Length of Visible Light 10h 42m
Length of Day
9h 45m
Waning Gibbous, 59% of the Moon is Illuminated
Dec 5
Waning Gibbous
Dec 6
Last Quarter
Dec 13
New
Dec 19
First Quarter
Dec 28
Full

Hourly Weather History & Observations

Time (CST) Temp. Windchill Dew Point Humidity Pressure Visibility Wind Dir Wind Speed Gust Speed Precip Events Conditions
12:53 AM 42.1 °F 37.1 °F 37.0 °F 82% 30.29 in 10.0 mi North 8.1 mph - N/A   Clear
1:53 AM 41.0 °F 37.1 °F 36.0 °F 82% 30.30 in 10.0 mi North 5.8 mph - N/A   Clear
2:53 AM 39.9 °F 37.8 °F 36.0 °F 86% 30.29 in 10.0 mi NW 3.5 mph - N/A   Clear
3:53 AM 36.0 °F 33.3 °F 34.0 °F 93% 30.30 in 10.0 mi NW 3.5 mph - N/A   Clear
4:53 AM 37.9 °F 33.5 °F 35.1 °F 89% 30.33 in 10.0 mi NW 5.8 mph - N/A   Clear
5:53 AM 36.0 °F 33.3 °F 33.1 °F 89% 30.34 in 10.0 mi NW 3.5 mph - N/A   Clear
6:53 AM 35.1 °F - 32.0 °F 89% 30.34 in 10.0 mi Calm Calm - N/A   Clear
8:53 AM 46.9 °F - 37.9 °F 71% 30.36 in 10.0 mi NE 3.5 mph - N/A   Clear
9:53 AM 51.1 °F - 39.9 °F 66% 30.35 in 10.0 mi NNE 9.2 mph - N/A   Clear
10:53 AM 55.0 °F - 41.0 °F 59% 30.33 in 10.0 mi NE 9.2 mph - N/A   Clear
11:53 AM 57.9 °F - 41.0 °F 53% 30.30 in 10.0 mi NE 8.1 mph - N/A   Clear
12:53 PM 60.1 °F - 39.0 °F 46% 30.27 in 10.0 mi NE 6.9 mph - N/A   Clear
1:53 PM 62.1 °F - 37.0 °F 39% 30.25 in 10.0 mi NE 8.1 mph - N/A   Clear
2:53 PM 61.0 °F - 39.0 °F 44% 30.24 in 10.0 mi NE 6.9 mph - N/A   Clear
3:53 PM 57.9 °F - 37.9 °F 47% 30.22 in 10.0 mi ENE 6.9 mph - N/A   Clear
4:53 PM 55.0 °F - 39.0 °F 55% 30.21 in 10.0 mi ENE 3.5 mph - N/A   Clear
5:53 PM 48.0 °F - 41.0 °F 77% 30.22 in 10.0 mi Calm Calm - N/A   Clear
6:53 PM 46.9 °F - 39.9 °F 77% 30.21 in 10.0 mi NE 4.6 mph - N/A   Clear
7:53 PM 48.0 °F - 37.0 °F 66% 30.19 in 10.0 mi NE 4.6 mph - N/A   Clear
8:53 PM 44.1 °F - 37.0 °F 76% 30.19 in 10.0 mi Calm Calm - N/A   Clear
9:53 PM 45.0 °F 41.8 °F 36.0 °F 71% 30.16 in 10.0 mi NE 5.8 mph - N/A   Clear
10:53 PM 44.1 °F 40.8 °F 36.0 °F 73% 30.15 in 10.0 mi NE 5.8 mph - N/A   Clear
11:53 PM 43.0 °F 40.3 °F 35.1 °F 74% 30.13 in 10.0 mi NE 4.6 mph - N/A   Clear